[Iaude] MPEC X179: 2023 XY5 [a=1.43,e=0.20,i=22.4,H=24.2]

mpec at marsden.cfa.harvard.edu mpec at marsden.cfa.harvard.edu
Sun Dec 10 17:46:39 EST 2023


M.P.E.C. 2023-X179                            Issued 2023 December 10, 22:40 UT

     The Minor Planet Electronic Circulars contain information on unusual
         minor planets, routine data on comets and natural satellites,
         and occasional editorial announcements.  They are published
    on behalf of Division F of the International Astronomical Union by the
          Minor Planet Center, Smithsonian Astrophysical Observatory,
                          Cambridge, MA 02138, U.S.A.
			  
             Prepared using the Tamkin Foundation Computer Network

                              MPC at CFA.HARVARD.EDU
            URL https://www.minorplanetcenter.net/    ISSN 1523-6714

                                    2023 XY5                                    


Observations:
     K23X05Y* C2023 12 07.43463306 59 28.878+26 32 04.56         21.83GVEX179V00
     K23X05Y  C2023 12 07.44014006 59 28.277+26 31 24.06         21.59GVEX179V00
     K23X05Y  C2023 12 07.44564206 59 27.690+26 30 43.85         21.68GVEX179V00
     K23X05Y  C2023 12 07.45114206 59 27.114+26 30 03.92         21.79GVEX179V00
     K23X05Y KC2023 12 07.51517906 59 20.364+26 22 11.93         22.36GVEX179V06
     K23X05Y KC2023 12 07.51648306 59 20.245+26 22 03.00         22.50GVEX179V06
     K23X05Y KC2023 12 07.51778906 59 20.119+26 21 53.14         21.95GVEX179V06
     K23X05Y KC2023 12 07.51909706 59 19.972+26 21 43.56         21.05GVEX179V06
     K23X05Y KC2023 12 08.36015006 58 06.236+24 38 22.27         21.76GVEX179I52
     K23X05Y KC2023 12 08.36634906 58 05.560+24 37 36.55         21.34GVEX179I52
     K23X05Y KC2023 12 08.37253306 58 04.818+24 36 50.36         20.60GVEX179I52
     K23X05Y KC2023 12 08.37314706 58 04.603+24 36 44.33         21.5 GVEX179H01
     K23X05Y KC2023 12 08.37901106 58 03.956+24 36 00.48         22.1 GVEX179H01
     K23X05Y KC2023 12 08.38368406 58 03.419+24 35 25.54         21.4 GVEX179H01
     K23X05Y KC2023 12 08.39127806 58 02.574+24 34 28.88         21.7 GVEX179H01
     K23X05Y  C2023 12 10.27590306 55 03.721+20 34 47.42         21.8 GVEX179H01
     K23X05Y KC2023 12 10.28572306 55 02.600+20 33 31.33         22.0 GVEX179H01
     K23X05Y KC2023 12 10.29109006 55 01.984+20 32 49.81         21.8 GVEX179H01
     K23X05Y KC2023 12 10.29534306 55 01.497+20 32 17.06         21.6 GVEX179H01

Observer details:
H01 Magdalena Ridge Observatory, Socorro.  Observers W. H. Ryan, E. V. Ryan.
    Measurer W. H. Ryan.  2.4-m f/8.9 Ritchey-Chretien + CCD.
I52 Steward Observatory, Mt. Lemmon Station.  Observer K. W. Wierzchos.
    Measurers E. C. Beshore, D. Fay, J. B. Fazekas, D. C. Fuls, A. R. Gibbs,
    A. D. Grauer, H. Groeller, J. K. Hogan, R. A. Kowalski, S. M. Larson, G.
    J. Leonard, D. Rankin, R. L. Seaman, F. C. Shelly, K. W. Wierzchos.  1.0-m
    prime focus + CCD.
V00 Kitt Peak-Bok.  Observer H. Groeller.  Measurers M. J. Brucker, C. E.
    Woodward, D. Fay, J. B. Fazekas, D. C. Fuls, A. R. Gibbs, H. Groeller, J.
    K. Hogan, R. A. Kowalski, S. M. Larson, C. Lejoly, G. J. Leonard, R. A.
    Mastaler, R. S. McMillan, D. Rankin, R. L. Seaman, A. Serrano, F. C.
    Shelly, K. W. Wierzchos.  2.25-m reflector + 4x4K mosaic CCD.
V06 Catalina Sky Survey-Kuiper.  Observer K. W. Wierzchos.  Measurers E. C.
    Beshore, D. Fay, J. B. Fazekas, D. C. Fuls, A. R. Gibbs, A. D. Grauer, H.
    Groeller, J. K. Hogan, R. A. Kowalski, S. M. Larson, G. J. Leonard, D.
    Rankin, R. L. Seaman, F. C. Shelly, K. W. Wierzchos.  1.55-m reflector +
    1K CCD.

Orbital elements:
2023 XY5                                                 Earth MOID = 0.1623 AU
Epoch 2023 Sept. 13.0 TT = JDT 2460200.5                Veres                   
M 302.13793              (2000.0)            P               Q                  
n   0.57923766     Peri.  191.12465     -0.01452819     -0.92629514             
a   1.4252734      Node   260.53367     +0.94418950     +0.11122273             
e   0.1969442      Incl.   22.44006     +0.32908224     -0.36000947             
P   1.70           H   24.27          G   0.15           U   8                  
Residuals in seconds of arc
231207 V00  0.0   0.1+    231207 V06  0.1+  0.0     231208 H01  0.0   0.0
231207 V00  0.1-  0.2-    231208 I52  0.1+  0.1-    231210 H01  0.1-  0.1+
231207 V00  0.1-  0.1-    231208 I52  0.3+  0.3+    231210 H01  0.0   0.1-
231207 V00  0.0   0.2+    231208 I52  0.4-  0.2+    231210 H01  0.0   0.1-
231207 V06  0.0   0.5-    231208 H01  0.2+  0.0     231210 H01  0.1+  0.1+
231207 V06  0.2+  0.2+    231208 H01  0.2+  0.1-
231207 V06  0.3+  0.0     231208 H01  0.0   0.1-

Ephemeris:
2023 XY5                 a,e,i = 1.43, 0.20, 22                  q = 1.1446
Date    TT    R. A. (2000) Decl.     Delta      r    Elong.  Phase     V
2023 11 10    07 02 13.4 +59 05 45   0.3227  1.1819   119.2    47.0    24.0
...
2023 11 25    07 11 18.2 +46 32 08   0.2336  1.1604   133.5    38.1    23.0
...
2023 12 03    07 05 20.0 +34 52 44   0.1973  1.1524   144.6    29.7    22.3
...
2023 12 09    06 57 05.9 +23 18 25   0.1796  1.1483   153.2    22.7    21.9
2023 12 10    06 55 29.4 +21 10 47   0.1777  1.1477   154.3    21.8    21.9
2023 12 11    06 53 49.7 +19 00 43   0.1761  1.1472   155.3    21.0    21.8
...
2023 12 17    06 43 05.0 +05 39 34   0.1737  1.1451   156.0    20.4    21.8
...
2023 12 25    06 28 20.9 -10 25 41   0.1888  1.1448   145.9    28.8    22.2
...
2024 01 09    06 06 27.2 -28 34 51   0.2533  1.1518   126.4    43.4    23.3

M. P. C. Staff               (C) Copyright 2023 MPC           M.P.E.C. 2023-X179





More information about the Iaude mailing list